CHINASAT 9B

Last updated on Wed Sep 17 2025 00:02:50 GMT+0000 (Coordinated Universal Time)

1 49125U 21080A 25259.65239171 -.00000332 00000+0 00000+0 0 9996 2 49125 0.0358 253.7661 0003504 302.3535 136.0007 1.00272325 14905
UTC large
Height (km)
Speed (km/s)
/
Latitude / Longitude
Inclination (degrees)
Orbital Period (minutes)
Azimuth
Elevation
Range (km)
Doppler Factor

Next 0 passes for location: London (51.5072 / 0.1276)

Sorry there are no passes over London.